Regional Weather Roundup
Issued by NWS Columbia, SC

Home | Current Version | Previous Version | Text Only | Print | Product List | Glossary On
Versions: 1 2 3 4 5 6 7 8 9 10 11 12 13 14 15 16 17 18 19 20 21 22 23 24 25 26 27 28 29 30 31 32 33 34 35 36 37 38 39 40 41 42 43 44 45 46 47 48 49 50
000
ASUS42 KCAE 050810
RWRCAE
REGIONAL WEATHER ROUNDUP
NATIONAL WEATHER SERVICE COLUMBIA SC
400 AM EDT TUE MAY 05 2015

NOTE: "FAIR" INDICATES FEW OR NO CLOUDS BELOW 12,000 FEET WITH NO
SIGNIFICANT WEATHER AND/OR OBSTRUCTIONS TO VISIBILITY.

NOT ALL STATIONS ARE QUALITY CONTROLLED BY THE NATIONAL
WEATHER SERVICE. USE DATA WITH CAUTION...ESPECIALLY
DEWPOINT OBSERVATIONS.

SCZ001>056-GAZ040-063>065-077-050900-
...UPSTATE SOUTH CAROLINA...

CITY           SKY/WX    TMP DP  RH WIND       PRES   REMARKS
ANDERSON       CLEAR     59  55  87 N3        30.32R
LIBERTY        PTSUNNY   55  55 100 CALM      30.31F
SPARTANBURG    CLEAR     59  59 100 CALM      30.32S
GREENVILLE     PTCLDY    62  54  74 W3        30.33S
GREENWOOD      CLEAR     55  53  93 CALM      30.32S
GREER          PTCLDY    60  55  83 CALM      30.31S
ROCK HILL      CLEAR     58  55  90 S3        30.32F
LAURENS        SUNNY     59  59 100 CALM      30.31S


...CENTRAL SOUTH CAROLINA...

CITY           SKY/WX    TMP DP  RH WIND       PRES   REMARKS
COLUMBIA APT   CLEAR     56  51  84 CALM      30.30F
COLUMBIA OWENS CLEAR     58  54  86 CALM      30.31F
DARLINGTON     CLEAR     55  50  82 CALM      30.33S
FLORENCE       CLEAR     57  54  89 CALM      30.32R
MCENTIRE ANGB  CLEAR     54  53  97 NE1       30.31S
ORANGEBURG     CLEAR     55  52  89 CALM      30.30F
SUMTER SHAW    CLEAR     54  52  92 E2        30.29F
NEWBERRY       SUNNY     55  54  94 CALM      30.33F
AIKEN          FAIR      54  50  87 CALM      30.33S
BARNWELL       FAIR      55  54  94 CALM      30.30F
MANNING        FAIR      50  43  76 CALM      30.30F
CAMDEN         FAIR      55  54  94 CALM      30.32S
LANCASTER      SUNNY     59  59 100 CALM      30.32S
WINNSBORO      SUNNY     57  54  88 CALM      30.31S


...EASTERN AND COASTAL SOUTH CAROLINA...

CITY           SKY/WX    TMP DP  RH WIND       PRES   REMARKS
MYRTLE BEACH     N/A     59  54  82 CALM      30.33F
N MYRTLE BCH   CLEAR     55  54  96 CALM      30.31S
CONWAY         FAIR      52  52 100 CALM      30.31S
MARION         FAIR      54  54 100 CALM      30.32R
HARTSVILLE     FAIR      54  52  94 CALM      30.32S
FLORENCE       CLEAR     57  54  89 CALM      30.32R
DARLINGTON     CLEAR     55  50  82 CALM      30.33S
CHARLESTON APT CLEAR     60  56  86 CALM      30.29F
MOUNT PLEASANT FAIR      57  57 100 MISG      30.30S
WALTERBORO     SUNNY     52  50  93 CALM      30.29F
BEAUFORT       CLEAR     62  59  90 NE5       30.28F


...EASTERN GEORGIA...

CITY           SKY/WX    TMP DP  RH WIND       PRES   REMARKS
AUGUSTA BUSH F CLEAR     53  52  96 CALM      30.29S
AUGUSTA DANIEL CLEAR     63  55  75 E3        30.30F
THOMSON        CLEAR     57  57 100 CALM      30.34S
WASHINGTON     FAIR      61  61 100 S3        30.30S
CLAXTON        FAIR      54  54 100 CALM      30.28S
SYLVANIA       SUNNY     55  55 100 CALM      30.29F
STATESBORO       N/A     54  54 100 CALM      30.28S
SAVANNAH       CLEAR     58  56  93 CALM      30.27F


...SOUTHERN NORTH CAROLINA...

CITY           SKY/WX    TMP DP  RH WIND       PRES   REMARKS
CHARLOTTE      CLEAR     60  53  77 CALM      30.32F
MONROE         CLEAR     58  53  84 SW3       30.31S
WADESBORO      SUNNY     56  53  89 CALM      30.32S
ROCKINGHAM     SUNNY     56  53  89 CALM      30.32S
RUTHERFORDTON  CLEAR     58  54  89 CALM      30.32F
ASHEVILLE      CLEAR     56  51  84 E3        30.34S

$$


USA.gov is the U.S. government's official web portal to all federal, state and local government web resources and services.